CW4740 Weather Reports


Display with metric or nautical units.
time (UTC)temp
F
wind
direction
speed
MPH
gust
MPH
rain 1hr
in
rain 24hr
in
rain mn
in
humidity
%
barometer
mb
20260503194714 76 17 5.0 12.0 0.01 0.24 0.24 91 1015.0
20260503194249 76 47 3.0 10.0 0.01 0.24 0.24 91 1015.1
20260503193724 76 45 5.0 12.0 0.01 0.24 0.24 91 1015.0
20260503193158 76 344 4.0 13.0 0.01 0.24 0.24 91 1015.0
20260503192635 77 19 7.0 13.0 0.01 0.24 0.24 90 1014.9
20260503192153 77 5 4.0 10.0 0.00 0.23 0.23 91 1015.0
20260503191649 77 22 1.0 6.0 0.00 0.23 0.23 91 1015.1
20260503191205 77 355 4.0 10.0 0.00 0.23 0.23 90 1015.3
20260503190641 77 347 4.0 10.0 0.00 0.23 0.23 90 1015.1
20260503190137 77 38 7.0 10.0 0.00 0.23 0.23 90 1015.2
20260503185747 77 13 4.0 6.0 0.00 0.23 0.23 91 1015.6
20260503185202 77 41 2.0 6.0 0.01 0.23 0.23 91 1015.6
20260503184721 77 360 3.0 6.0 0.01 0.23 0.23 91 1015.7
20260503184136 77 53 2.0 8.0 0.03 0.23 0.23 91 1015.7
20260503183654 77 329 5.0 9.0 0.03 0.23 0.23 91 1016.0
20260503183229 77 333 5.0 9.0 0.04 0.23 0.23 90 1015.9
20260503182704 77 9 2.0 8.0 0.04 0.23 0.23 91 1016.2
20260503182235 77 5 0.0 0.0 0.04 0.23 0.23 91 1016.2
20260503182153 77 5 0.0 0.0 0.04 0.23 0.23 91 1016.2
20260503181634 76 5 0.0 0.0 0.04 0.23 0.23 91 1016.3
20260503181131 76 5 0.0 0.0 0.04 0.23 0.23 90 1016.4
20260503180628 77 5 0.0 2.0 0.04 0.23 0.23 90 1016.4
20260503180206 77 5 1.0 2.0 0.04 0.23 0.23 89 1016.5
20260503175653 77 5 0.0 4.0 0.04 0.23 0.23 89 1016.5
20260503175129 77 5 1.0 4.0 0.03 0.22 0.22 88 1016.6
20260503174646 77 5 1.0 5.0 0.03 0.22 0.22 88 1016.6
20260503174144 77 5 2.0 6.0 0.01 0.20 0.20 86 1016.7
20260503173642 78 5 2.0 6.0 0.01 0.20 0.20 86 1016.7
20260503173220 78 13 3.0 8.0 0.00 0.19 0.19 84 1016.5
20260503173138 78 13 3.0 8.0 0.00 0.19 0.19 84 1016.5
20260503172656 78 348 3.0 6.0 0.00 0.19 0.19 84 1016.5
20260503172131 78 30 3.0 8.0 0.00 0.19 0.19 84 1016.5
20260503171749 78 31 4.0 8.0 0.00 0.19 0.19 84 1016.5
20260503171204 78 31 1.0 9.0 0.00 0.19 0.19 84 1016.6
20260503170700 78 31 2.0 9.0 0.00 0.19 0.19 84 1016.5
20260503170135 78 5 3.0 8.0 0.00 0.19 0.19 84 1016.5
20260503160150 78 86 3.0 9.0 0.00 0.19 0.19 86 1016.6
20260503150706 77 319 3.0 9.0 0.00 0.19 0.19 88 1017.0
20260503150143 77 26 5.0 8.0 0.00 0.19 0.19 88 1016.9
20260503140140 75 22 1.0 4.0 0.00 0.19 0.19 94 1016.6
20260503131241 73 346 0.0 0.0 0.09 0.19 0.19 94 1016.3
20260503130655 73 346 0.0 0.0 0.17 0.19 0.19 94 1016.4
20260503130130 72 346 0.0 0.0 0.18 0.19 0.19 93 1016.3
20260503120143 73 333 2.0 5.0 0.01 0.01 0.01 90 1015.4
20260503110630 74 319 2.0 6.0 0.00 0.00 0.00 85 1014.5
20260503110133 74 333 4.0 6.0 0.00 0.00 0.00 85 1014.6
20260503100130 76 342 0.0 2.0 0.00 0.00 0.00 84 1013.9
20260503090132 76 336 0.0 4.0 0.00 0.00 0.00 83 1013.9
20260503081628 76 295 3.0 5.0 0.00 0.00 0.00 82 1013.9
20260503081129 76 306 1.0 3.0 0.00 0.00 0.00 82 1014.0
20260503080701 76 309 2.0 4.0 0.00 0.00 0.00 82 1014.0
20260503080237 76 287 1.0 8.0 0.00 0.00 0.00 82 1014.1
20260503072632 77 336 2.0 5.0 0.00 0.00 0.00 80 1013.2
20260503072128 77 293 3.0 5.0 0.00 0.00 0.00 79 1013.5
20260503071707 77 294 1.0 5.0 0.00 0.00 0.00 79 1013.8
20260503071144 77 299 3.0 10.0 0.00 0.00 0.00 79 1013.7
20260503070721 77 264 5.0 10.0 0.00 0.00 0.00 79 1013.5
20260503070136 77 311 4.0 6.0 0.00 0.00 0.00 80 1013.7
20260503060131 78 249 1.0 5.0 0.00 0.00 0.00 81 1013.0
20260503054714 78 227 1.0 5.0 0.00 0.00 0.00 80 1013.2
20260503054632 78 227 1.0 5.0 0.00 0.00 0.00 80 1013.2
20260503054229 78 225 1.0 5.0 0.00 0.00 0.00 80 1013.1
20260503053645 78 217 1.0 4.0 0.00 0.00 0.00 79 1013.2
20260503053140 78 222 2.0 5.0 0.00 0.00 0.00 79 1013.4
20260503052657 78 250 1.0 8.0 0.00 0.00 0.00 79 1013.6
20260503052235 78 242 1.0 8.0 0.00 0.00 0.00 79 1013.7
20260503051729 78 240 3.0 6.0 0.00 0.00 0.00 79 1013.8
20260503051647 78 240 3.0 6.0 0.00 0.00 0.00 79 1013.8
20260503051143 78 248 1.0 7.0 0.00 0.00 0.00 79 1013.8
20260503050701 79 245 2.0 8.0 0.00 0.00 0.00 79 1014.0
20260503050139 79 244 3.0 8.0 0.00 0.00 0.00 78 1014.1
20260503045647 79 242 2.0 5.0 0.00 0.00 0.00 78 1014.0
20260503045206 79 232 1.0 5.0 0.00 0.00 0.00 78 1014.0
20260503044701 79 249 3.0 8.0 0.00 0.00 0.00 78 1014.2
20260503044158 79 260 3.0 8.0 0.00 0.00 0.00 77 1014.3
20260503043636 79 246 3.0 6.0 0.00 0.00 0.00 77 1014.2
20260503043249 79 277 2.0 6.0 0.00 0.00 0.00 77 1014.4
20260503042642 79 263 3.0 7.0 0.00 0.00 0.00 77 1014.2
20260503042219 79 254 2.0 7.0 0.00 0.00 0.00 77 1014.1
20260503041655 80 257 1.0 7.0 0.00 0.00 0.00 77 1014.1
20260503041151 80 250 2.0 4.0 0.00 0.00 0.00 77 1014.2
20260503040728 80 250 2.0 4.0 0.00 0.00 0.00 77 1014.1
20260503040646 80 250 2.0 4.0 0.00 0.00 0.00 77 1014.1
20260503040245 80 250 2.0 4.0 0.00 0.00 0.00 77 1014.3
20260503035631 80 250 1.0 6.0 0.00 0.00 0.00 77 1014.3
20260503035230 80 250 3.0 6.0 0.00 0.00 0.00 77 1014.5
20260503035147 80 250 3.0 6.0 0.00 0.00 0.00 77 1014.5
20260503034724 80 269 0.0 2.0 0.00 0.00 0.00 77 1014.3
20260503034220 80 269 0.0 3.0 0.00 0.00 0.00 76 1014.0
20260503033715 80 269 0.0 3.0 0.00 0.00 0.00 76 1013.9
20260503033129 80 269 0.0 2.0 0.00 0.00 0.00 76 1013.8
20260503032747 80 269 1.0 2.0 0.00 0.00 0.00 76 1014.0
20260503032218 80 269 1.0 4.0 0.00 0.00 0.00 76 1013.9
20260503031638 80 269 0.0 4.0 0.00 0.00 0.00 76 1013.9
20260503031137 80 269 0.0 4.0 0.00 0.00 0.00 76 1013.8
20260503030715 80 269 1.0 4.0 0.00 0.00 0.00 76 1013.9
20260503030633 80 269 1.0 4.0 0.00 0.00 0.00 76 1013.9
20260503030132 80 269 3.0 4.0 0.00 0.00 0.00 75 1013.9
20260503025642 80 270 0.0 3.0 0.00 0.00 0.00 75 1013.8
20260503025139 81 268 1.0 3.0 0.00 0.00 0.00 75 1013.9
20260503024636 81 269 1.0 6.0 0.00 0.00 0.00 74 1013.9
20260503024133 81 290 2.0 5.0 0.00 0.00 0.00 74 1013.8
20260503023710 81 246 2.0 7.0 0.00 0.00 0.00 73 1013.9
20260503023628 81 246 2.0 7.0 0.00 0.00 0.00 73 1013.9
20260503023205 81 261 3.0 7.0 0.00 0.00 0.00 73 1013.9
20260503022721 81 270 3.0 8.0 0.00 0.00 0.00 72 1014.0
20260503022135 82 248 3.0 8.0 0.00 0.00 0.00 72 1014.0
20260503021632 82 273 3.0 8.0 0.00 0.00 0.00 71 1014.0
20260503021131 83 288 2.0 12.0 0.00 0.00 0.00 70 1013.8
20260503020628 83 262 4.0 12.0 0.00 0.00 0.00 69 1013.7
20260503020227 83 262 4.0 14.0 0.00 0.00 0.00 69 1013.7
20260503015655 84 248 4.0 14.0 0.00 0.00 0.00 68 1013.7
20260503015211 84 265 6.0 11.0 0.00 0.00 0.00 68 1013.6
20260503014724 84 229 4.0 13.0 0.00 0.00 0.00 67 1013.5
20260503014221 84 262 6.0 13.0 0.00 0.00 0.00 66 1013.4
20260503013735 84 249 6.0 11.0 0.00 0.00 0.00 66 1013.4
20260503013128 85 258 4.0 11.0 0.00 0.00 0.00 65 1013.2
20260503012705 85 269 4.0 11.0 0.00 0.00 0.00 64 1013.3
20260503012221 85 293 4.0 10.0 0.00 0.00 0.00 64 1013.2
20260503011715 85 258 4.0 11.0 0.00 0.00 0.00 63 1013.1
20260503011232 85 253 8.0 11.0 0.00 0.00 0.00 62 1013.0
20260503010707 86 263 4.0 12.0 0.00 0.00 0.00 62 1012.9
20260503010204 86 261 5.0 16.0 0.00 0.00 0.00 61 1012.9
20260503005711 86 274 6.0 12.0 0.00 0.00 0.00 60 1012.8
20260503005247 86 296 4.0 11.0 0.00 0.00 0.00 59 1012.6
20260503004718 86 259 4.0 11.0 0.00 0.00 0.00 59 1012.6
20260503004213 87 257 3.0 12.0 0.00 0.00 0.00 58 1012.6
20260503003750 87 268 6.0 13.0 0.00 0.00 0.00 57 1012.5
20260503003143 87 266 6.0 14.0 0.00 0.00 0.00 56 1012.6
20260503002740 87 246 6.0 13.0 0.00 0.00 0.00 55 1012.5
20260503002636 87 246 6.0 13.0 0.00 0.00 0.00 55 1012.5
20260503002234 88 263 6.0 13.0 0.00 0.00 0.00 54 1012.4
20260503002131 88 263 6.0 13.0 0.00 0.00 0.00 54 1012.4
20260503001646 88 256 7.0 13.0 0.00 0.00 0.00 54 1012.3
20260503001142 88 244 3.0 12.0 0.00 0.00 0.00 53 1012.4
20260503000638 89 261 4.0 12.0 0.00 0.00 0.00 52 1012.1
20260503000156 89 259 5.0 16.0 0.00 0.00 0.00 52 1012.1
20260502235743 89 250 5.0 16.0 0.00 0.00 0.00 51 1012.0
20260502235639 89 250 5.0 16.0 0.00 0.00 0.00 51 1012.0
20260502235137 89 243 5.0 12.0 0.00 0.00 0.00 50 1012.1
20260502234633 89 259 4.0 13.0 0.00 0.00 0.00 50 1011.9
20260502234130 90 250 5.0 13.0 0.00 0.00 0.00 49 1011.9
20260502233728 90 285 2.0 9.0 0.00 0.00 0.00 50 1011.7
20260502233145 90 263 5.0 9.0 0.00 0.00 0.00 49 1011.7
20260502232743 90 266 3.0 9.0 0.00 0.00 0.00 49 1011.7
20260502232700 90 266 3.0 9.0 0.00 0.00 0.00 49 1011.7
20260502232138 90 267 3.0 12.0 0.00 0.00 0.00 48 1011.5
20260502231735 90 248 5.0 12.0 0.00 0.00 0.00 48 1011.4
20260502231653 90 248 5.0 12.0 0.00 0.00 0.00 48 1011.4
20260502231150 90 274 5.0 13.0 0.00 0.00 0.00 47 1011.4
20260502230646 91 254 5.0 11.0 0.00 0.00 0.00 48 1011.3
20260502230239 91 246 5.0 10.0 0.00 0.00 0.00 48 1011.3
20260502230157 91 246 5.0 10.0 0.00 0.00 0.00 48 1011.3
20260502225641 91 267 3.0 10.0 0.00 0.00 0.00 48 1011.0
20260502225154 91 236 4.0 10.0 0.00 0.00 0.00 47 1011.0
20260502224749 91 276 4.0 9.0 0.00 0.00 0.00 48 1011.1
20260502224203 91 269 3.0 11.0 0.00 0.00 0.00 48 1011.0
20260502223639 91 248 4.0 11.0 0.00 0.00 0.00 48 1010.9
20260502223136 91 262 4.0 16.0 0.00 0.00 0.00 47 1010.9
20260502222631 91 263 7.0 16.0 0.00 0.00 0.00 47 1010.9
20260502222227 91 230 7.0 12.0 0.00 0.00 0.00 47 1010.9
20260502222145 91 230 7.0 12.0 0.00 0.00 0.00 47 1010.9
20260502221642 92 253 6.0 12.0 0.00 0.00 0.00 46 1010.8
20260502221220 92 253 6.0 14.0 0.00 0.00 0.00 47 1010.9
20260502220635 92 259 5.0 14.0 0.00 0.00 0.00 46 1010.8
20260502220212 93 257 8.0 12.0 0.00 0.00 0.00 45 1010.8
20260502215719 92 272 7.0 15.0 0.00 0.00 0.00 45 1010.8
20260502215135 93 278 8.0 14.0 0.00 0.00 0.00 45 1010.7
20260502214711 93 246 6.0 19.0 0.00 0.00 0.00 45 1010.6
20260502214145 93 259 8.0 19.0 0.00 0.00 0.00 45 1010.7
20260502213701 93 251 7.0 16.0 0.00 0.00 0.00 45 1010.6
20260502213138 93 255 5.0 16.0 0.00 0.00 0.00 45 1010.7
20260502212637 93 259 9.0 16.0 0.00 0.00 0.00 45 1010.7
20260502212153 93 298 7.0 13.0 0.00 0.00 0.00 45 1010.7
20260502211629 93 254 6.0 17.0 0.00 0.00 0.00 45 1010.5
20260502211145 93 280 11.0 17.0 0.00 0.00 0.00 43 1010.8
20260502210721 93 246 6.0 13.0 0.00 0.00 0.00 44 1010.6
20260502210135 93 265 6.0 20.0 0.00 0.00 0.00 44 1010.4
20260502205643 93 218 10.0 20.0 0.00 0.00 0.00 43 1010.5
20260502205239 93 238 10.0 17.0 0.00 0.00 0.00 45 1010.4
20260502205157 93 238 10.0 17.0 0.00 0.00 0.00 45 1010.4
20260502204732 93 259 8.0 20.0 0.00 0.00 0.00 45 1010.5
20260502204222 93 314 11.0 18.0 0.00 0.00 0.00 43 1010.6
20260502203657 94 249 9.0 14.0 0.00 0.00 0.00 45 1010.4
20260502203154 93 242 8.0 18.0 0.00 0.00 0.00 46 1010.6
20260502202731 94 292 8.0 18.0 0.00 0.00 0.00 45 1010.6
20260502202649 94 292 8.0 18.0 0.00 0.00 0.00 45 1010.6
20260502202226 93 261 8.0 18.0 0.00 0.00 0.00 45 1010.6
20260502201642 94 223 9.0 16.0 0.00 0.00 0.00 45 1010.5
20260502201157 94 255 7.0 16.0 0.00 0.00 0.00 47 1010.6
20260502200632 93 241 8.0 21.0 0.00 0.00 0.00 47 1010.7
20260502200209 93 259 9.0 21.0 0.00 0.00 0.00 46 1010.7
20260502195735 93 302 6.0 18.0 0.00 0.00 0.00 47 1010.6
20260502195631 93 302 6.0 18.0 0.00 0.00 0.00 47 1010.6
20260502195128 93 263 6.0 21.0 0.00 0.00 0.00 47 1010.8